TimeEDT,TemperatureF,Dew PointF,Humidity,Sea Level PressureIn,VisibilityMPH,Wind Direction,Wind SpeedMPH,Gust SpeedMPH,PrecipitationIn,Events,Conditions,WindDirDegrees,DateUTC
12:53 AM,57.9,54.0,87,30.08,10.0,North,3.5,-,N/A,,Clear,360,2013-10-16 04:53:00
1:53 AM,61.0,54.0,78,30.06,10.0,NE,8.1,-,N/A,,Clear,40,2013-10-16 05:53:00
2:53 AM,57.9,54.0,87,30.06,10.0,NNE,8.1,-,N/A,,Clear,20,2013-10-16 06:53:00
3:53 AM,57.9,54.0,87,30.05,10.0,North,5.8,-,N/A,,Clear,360,2013-10-16 07:53:00
4:53 AM,57.9,53.1,84,30.04,10.0,North,5.8,-,N/A,,Clear,360,2013-10-16 08:53:00
5:53 AM,57.0,53.1,87,30.05,10.0,NE,3.5,-,N/A,,Partly Cloudy,40,2013-10-16 09:53:00
6:53 AM,57.0,52.0,83,30.05,10.0,Calm,Calm,-,N/A,,Clear,0,2013-10-16 10:53:00
7:53 AM,57.9,52.0,81,30.07,10.0,North,4.6,-,N/A,,Clear,360,2013-10-16 11:53:00
8:53 AM,61.0,53.1,75,30.08,10.0,NE,6.9,-,N/A,,Clear,50,2013-10-16 12:53:00
9:53 AM,64.0,54.0,70,30.07,10.0,East,5.8,-,N/A,,Clear,80,2013-10-16 13:53:00
10:53 AM,66.9,55.0,66,30.09,10.0,Calm,Calm,-,N/A,,Clear,0,2013-10-16 14:53:00
11:53 AM,71.1,55.0,57,30.07,10.0,Calm,Calm,-,N/A,,Partly Cloudy,0,2013-10-16 15:53:00
12:53 PM,71.1,53.1,53,30.04,10.0,WNW,3.5,-,N/A,,Clear,290,2013-10-16 16:53:00
1:53 PM,72.0,51.1,48,30.02,10.0,South,4.6,-,N/A,,Partly Cloudy,190,2013-10-16 17:53:00
2:20 PM,73.4,51.8,47,30.03,10.0,SSW,5.8,-,N/A,,Partly Cloudy,210,2013-10-16 18:20:00
2:53 PM,72.0,52.0,49,30.00,10.0,West,6.9,-,N/A,,Mostly Cloudy,260,2013-10-16 18:53:00
3:53 PM,72.0,54.0,53,29.99,10.0,West,4.6,-,N/A,,Clear,270,2013-10-16 19:53:00
4:53 PM,72.0,54.0,53,29.98,10.0,SSW,6.9,-,N/A,,Partly Cloudy,210,2013-10-16 20:53:00
5:53 PM,71.1,54.0,55,29.99,10.0,WSW,6.9,-,N/A,,Partly Cloudy,240,2013-10-16 21:53:00
6:53 PM,69.1,53.1,57,29.99,10.0,SSW,4.6,-,N/A,,Clear,210,2013-10-16 22:53:00
7:53 PM,68.0,54.0,61,30.00,10.0,Calm,Calm,-,N/A,,Partly Cloudy,0,2013-10-16 23:53:00
8:53 PM,68.0,55.0,63,30.00,10.0,SW,3.5,-,N/A,,Mostly Cloudy,230,2013-10-17 00:53:00
9:53 PM,64.9,55.0,70,30.01,10.0,West,3.5,-,N/A,,Partly Cloudy,260,2013-10-17 01:53:00
10:53 PM,64.9,55.9,73,30.01,10.0,West,3.5,-,N/A,,Partly Cloudy,260,2013-10-17 02:53:00
11:53 PM,64.9,55.9,73,29.99,10.0,Calm,Calm,-,N/A,,Partly Cloudy,0,2013-10-17 03:53:00